Location: Unspecified
(0.0000°N, 0.0000°E)
Time: 18:00:25
(UTC+02:00)

SWIFT - Visible Passes

Search period start: 23 June 2018 00:00
Search period end: 03 July 2018 00:00
Orbit: 546 x 562 km, 20.6° (Epoch: 22 June)

Date Brightness Start Highest point End Pass type
(mag) Time Alt. Az. Time Alt. Az. Time Alt. Az.
23 Jun 4.1 21:33:58 10° NNW 21:37:10 20° NNE 21:37:54 19° NE visible
24 Jun 3.7 21:27:53 10° NW 21:31:31 27° NNE 21:32:28 25° NE visible
25 Jun 3.3 21:21:54 10° NW 21:25:51 37° NNE 21:27:04 30° ENE visible
26 Jun 2.8 21:16:00 10° NW 21:20:10 52° NNE 21:21:40 34° ENE visible
27 Jun 4.3 07:32:22 10° SSW 07:35:15 18° SSE 07:38:07 10° ESE visible
27 Jun 2.3 21:10:12 10° WNW 21:14:28 75° NNE 21:16:17 33° E visible
28 Jun 4.0 07:26:14 10° SW 07:29:37 23° SSE 07:32:59 10° ESE visible
28 Jun 2.3 21:04:30 10° WNW 21:08:46 77° SSW 21:10:55 28° ESE visible
29 Jun 3.5 07:20:21 11° SW 07:23:57 31° SSE 07:27:42 10° E visible
29 Jun 2.7 20:58:53 10° W 21:03:04 54° SSW 21:05:34 22° SE visible
30 Jun 3.0 07:15:01 14° SW 07:18:16 43° SSE 07:22:16 10° E visible
30 Jun 3.3 20:53:22 10° W 20:57:22 38° SSW 21:00:13 17° SE visible
01 Jul 2.5 07:09:39 18° SW 07:12:36 62° SSE 07:16:44 10° ENE visible
01 Jul 3.7 20:48:00 10° W 20:51:42 28° SSW 20:54:52 13° SE visible
02 Jul 2.2 07:04:18 22° WSW 07:06:54 89° SE 07:11:05 10° ENE visible
02 Jul 4.1 20:42:45 10° WSW 20:46:02 21° SSW 20:49:20 10° SSE visible
